Regional Weather Roundup
Issued by NWS Cleveland, OH

Home | Current Version | Previous Version | Text Only | Print | Product List | Glossary Off
Versions: 1 2 3 4 5 6 7 8 9 10 11 12 13 14 15 16 17 18 19 20 21 22 23 24 25 26 27 28 29 30 31 32 33 34 35 36 37 38 39 40 41 42 43 44 45 46 47 48 49 50

267
ASUS41 KCLE 230810
RWRCLE
OHIO REGIONAL WEATHER ROUNDUP
NATIONAL WEATHER SERVICE WILMINGTON, OH
400 AM EDT SUN APR 23 2017

NOTE: "FAIR" INDICATES FEW OR NO CLOUDS BELOW 12,000 FEET WITH NO
SIGNIFICANT WEATHER AND/OR OBSTRUCTIONS TO VISIBILITY.

OHZ001>008-015>018-024>027-034-035-043-044-230900-
   NORTHWEST OHIO

CITY           SKY/WX    TMP DP  RH WIND       PRES   REMARKS
DEFIANCE       FAIR      36  33  89 CALM      30.11F
FINDLAY        FAIR      40  32  73 N5        30.09F
TOLEDO EXPRESS FAIR      36  34  92 CALM      30.10F
TOLEDO EXEC    FAIR      42  32  67 NE3       30.11F
LIMA           FAIR      38  32  79 NE3       30.09F
$$

OHZ009>014-019>023-028>033-038-089-230900-
   NORTHEAST OHIO

CITY           SKY/WX    TMP DP  RH WIND       PRES   REMARKS
CLE-HOPKINS    FAIR      38  34  85 CALM      30.12F
CLE-LAKEFRONT  FAIR      44  36  73 E3        30.10F
CUY CO. ARPT   NOT AVBL
LORAIN-ELYRIA  FAIR      36  32  85 CALM      30.11F
ASHTABULA      FAIR      35  33  92 CALM      30.11F
AKRON-CANTON   FAIR      39  33  79 NE8       30.08F
WOOSTER        FAIR      37  33  85 CALM      30.10S
MANSFIELD      FAIR      39  33  79 NE5       30.09S
YOUNGSTOWN     FAIR      38  33  82 NE7       30.09F
$$

OHZ042-051>053-060>062-070>072-077>081-230900-
  SOUTHWEST OHIO

CITY           SKY/WX    TMP DP  RH WIND       PRES   REMARKS
CINC-COVINGTON FAIR      45  35  68 NE15      30.02F
CINC-LUNKEN    FAIR      41  37  86 NE7       30.06S
HAMILTON       FAIR      41  36  82 NE6       30.07S
DAYTON         FAIR      37  32  82 NE8       30.08R
WRIGHT-PAT AFB FAIR      37  34  90 NE5       30.07S
DAYTON GENERAL FAIR      39  34  82 NE8       30.05S
WILMINGTON     FAIR      40  36  86 NE9       30.05S
$$

OHZ036-037-039>041-045>050-054>059-063>069-073>076-082>088-230900-
  CENTRAL AND SOUTHEAST OHIO

CITY           SKY/WX    TMP DP  RH WIND       PRES   REMARKS
COLUMBUS       FAIR      39  35  86 N6        30.07R
OSU AIRPORT    FAIR      37  34  89 NE5       30.08R
BOLTON FIELD   FAIR      38  35  89 N7        30.08R
RICKENBACK AFB FAIR      38  34  87 NE3       30.07R
NEWARK         FAIR      41  33  73 CALM      30.07S
MARION         FAIR      35  30  82 NE6       30.09F
LANCASTER      FAIR      39  34  82 CALM      30.07R
ZANESVILLE     FAIR      40  33  76 N3        30.07S
NEW PHILLY     FAIR      41  35  79 N3        30.09S
$$




USA.gov is the U.S. government's official web portal to all federal, state and local government web resources and services.